This is the latest recevied weather packets stored in our database for station/object UR7D-12. If no packets are shown the sender has not sent any weather packets the latest 10 day(s).
| Time | Temp. | Humidity | Pressure | Rain* | Wind** | Luminosity | Snow |
|---|---|---|---|---|---|---|---|
| 1777792636 | 12.78° C | 53% | 997.2 hPa | 0 mm | - | - | - |
| 1777792337 | 12.78° C | 55% | 997.2 hPa | 0 mm | - | - | - |
| 1777792036 | 12.78° C | 55% | 997.2 hPa | 0 mm | - | - | - |
| 1777791735 | 12.22° C | 56% | 997.2 hPa | 0 mm | - | - | - |
| 1777791435 | 11.67° C | 57% | 997.2 hPa | 0 mm | - | - | - |
| 1777790834 | 11.11° C | 58% | 997.2 hPa | 0 mm | - | - | - |
| 1777790233 | 11.11° C | 58% | 997.3 hPa | 0 mm | - | - | - |
| 1777789933 | 11.11° C | 61% | 997.3 hPa | 0 mm | - | - | - |
| 1777789634 | 10.56° C | 60% | 997.2 hPa | 0 mm | - | - | - |
| 1777789033 | 10.56° C | 62% | 997.2 hPa | 0 mm | - | - | - |
| 1777788732 | 10.56° C | 64% | 997.2 hPa | 0 mm | - | - | - |
| 1777787532 | 9.44° C | 67% | 997.1 hPa | 0 mm | - | - | - |
| 1777787231 | 9.44° C | 66% | 997.1 hPa | 0 mm | - | - | - |
| 1777786631 | 8.89° C | 69% | 997.1 hPa | 0 mm | - | - | - |
| 1777786331 | 8.33° C | 68% | 997.1 hPa | 0 mm | - | - | - |
| 1777786031 | 8.33° C | 69% | 997 hPa | 0 mm | - | - | - |
| 1777785429 | 7.78° C | 70% | 996.9 hPa | 0 mm | - | - | - |
| 1777785129 | 7.78° C | 70% | 996.8 hPa | 0 mm | - | - | - |
| 1777783927 | 7.22° C | 72% | 996.9 hPa | 0 mm | - | - | - |
| 1777783627 | 7.22° C | 72% | 996.9 hPa | 0 mm | - | - | - |
| 1777783328 | 6.67° C | 72% | 996.9 hPa | 0 mm | - | - | - |
| 1777783027 | 6.67° C | 73% | 997 hPa | 0 mm | - | - | - |
| 1777782728 | 6.67° C | 73% | 996.8 hPa | 0 mm | - | - | - |
| 1777782127 | 6.11° C | 73% | 996.8 hPa | 0 mm | - | - | - |
| 1777781226 | 6.11° C | 74% | 996.7 hPa | 0 mm | - | - | - |
* Rain latest hour (hover to see other rain measurements)
** Current wind speed in m/s (hover to see current wind gust speed)